Weather History for Grand Canyon, AZ

Change the Weather History Date:

Saturday, January 11, 2014

  Actual Average Record
Temperature  
Mean Temperature 34 °F -  
Max Temperature 55 °F 43 °F 59 °F (1990)
Min Temperature 14 °F 15 °F -9 °F (2013)
Degree Days  
Heating Degree Days 30    
Moisture  
Dew Point 18 °F    
Average Humidity 58    
Maximum Humidity 88    
Minimum Humidity 25    
Precipitation  
Precipitation 0.00 in - - ()
Sea Level Pressure  
Sea Level Pressure 30.20 in    
Wind  
Wind Speed 4 mph (SW)    
Max Wind Speed 12 mph    
Max Gust Speed 21 mph    
Visibility 10 miles    
Events      
Averages and records for this station are not official NWS values.
T = Trace of Precipitation, MM = Missing Value Source: NWS Daily Summary

Daily Weather History Graph

Daily Weather History Graph

Search for Another Location

Airport:

Trip Planner

Search our weather history database for the weather conditions in past years. The results will help you decide how hot, cold, wet, or windy it might be!

Date:

Astronomy

Jan. 11, 2014 Rise Set
Actual Time 7:39 AM MST 5:34 PM MST
Civil Twilight 7:11 AM MST 6:02 PM MST
Nautical Twilight 6:39 AM MST 6:34 PM MST
Astronomical Twilight 6:08 AM MST 7:04 PM MST
Moon 2:19 PM MST (1/11) 3:49 AM MST (1/11)
Length of Visible Light 10h 51m
Length of Day
9h 55m
Waxing Gibbous, 83% of the Moon is Illuminated
Jan 11
Waxing Gibbous
Jan 15
Full
Jan 23
Last Quarter
Jan 30
New
Feb 6
First Quarter

Hourly Weather History & Observations

Time (MST) Temp. Windchill Dew Point Humidity Pressure Visibility Wind Dir Wind Speed Gust Speed Precip Events Conditions
12:54 AM 16.0 °F - 12.0 °F 84% 30.27 in 10.0 mi Calm Calm - N/A   Clear
1:54 AM 18.0 °F 8.7 °F 14.0 °F 84% 30.26 in 10.0 mi ENE 6.9 mph - N/A   Clear
2:54 AM 14.0 °F - 10.9 °F 88% 30.27 in 10.0 mi Calm Calm - N/A   Clear
3:54 AM 17.1 °F 11.7 °F 14.0 °F 88% 30.25 in 10.0 mi ENE 3.5 mph - N/A   Clear
4:54 AM 15.1 °F 9.4 °F 12.0 °F 88% 30.27 in 10.0 mi NE 3.5 mph - N/A   Clear
5:54 AM 15.1 °F 9.4 °F 12.0 °F 88% 30.33 in 10.0 mi ENE 3.5 mph - N/A   Clear
6:54 AM 15.1 °F - 12.0 °F 88% 30.37 in 10.0 mi Calm Calm - N/A   Clear
7:54 AM 14.0 °F - 10.9 °F 88% 30.38 in 10.0 mi Calm Calm - N/A   Clear
8:54 AM 24.1 °F - 19.0 °F 81% 30.35 in 10.0 mi Calm Calm - N/A   Clear
10:54 AM 50.0 °F - 21.9 °F 33% 30.27 in 10.0 mi SSW 5.8 mph - N/A   Clear
11:54 AM 53.1 °F - 21.0 °F 29% 30.23 in 10.0 mi SW 10.4 mph - N/A   Clear
12:54 PM 55.0 °F - 21.0 °F 27% 30.18 in 10.0 mi WSW 11.5 mph - N/A   Clear
1:54 PM 54.0 °F - 21.0 °F 28% 30.15 in 10.0 mi WSW 10.4 mph - N/A   Clear
2:54 PM 54.0 °F - 21.0 °F 28% 30.15 in 10.0 mi WSW 9.2 mph - N/A   Clear
3:54 PM 55.0 °F - 19.9 °F 25% 30.12 in 10.0 mi SW 11.5 mph 17.3 mph N/A   Clear
4:54 PM 53.1 °F - 21.0 °F 29% 30.13 in 10.0 mi WSW 10.4 mph 20.7 mph N/A   Clear
5:54 PM 43.0 °F 41.3 °F 19.9 °F 40% 30.16 in 10.0 mi SW 3.5 mph - N/A   Clear
6:54 PM 28.9 °F - 16.0 °F 58% 30.21 in 10.0 mi Calm Calm - N/A   Clear
7:54 PM 39.9 °F 34.5 °F 21.9 °F 49% 30.17 in 10.0 mi SW 8.1 mph - N/A   Clear
8:54 PM 39.0 °F 32.8 °F 23.0 °F 53% 30.11 in 10.0 mi SW 9.2 mph - N/A   Clear
9:54 PM 39.0 °F 32.3 °F 23.0 °F 53% 30.02 in 10.0 mi SW 10.4 mph - N/A   Clear
10:54 PM 39.0 °F 32.8 °F 23.0 °F 53% 29.96 in 10.0 mi SSW 9.2 mph - N/A   Clear
11:54 PM 37.0 °F 31.6 °F 23.0 °F 57% 29.95 in 10.0 mi SW 6.9 mph - N/A   Clear